{"data":{"norad_id":60314,"epoch":"2026-09-21T18:47:26.004768Z","epoch_age_seconds":74739,"freshness":"FRESH","line1":"1 60314U 24133P   26264.78293987 -.00000850  00000+0 -14032-4 0  9998","line2":"2 60314  53.1593 104.0587 0001234  86.5772 273.5371 15.34384578121697","mean_motion":15.34384578,"eccentricity":0.0001234,"inclination_deg":53.1593,"raan_deg":104.0587,"arg_perigee_deg":86.5772,"mean_anomaly_deg":273.5371,"bstar":-1.4032e-5,"rev_number":12169,"period_min":93.848701339072,"perigee_km":461.90491268304,"apogee_km":463.5932433671,"semimajor_km":6840.8860780251,"source":"CELESTRAK","updated_at":"2026-09-22T09:00:49.216749Z"}}